User: anonymous   Login
Location: Unspecified
(0.0000°N, 0.0000°E)
Time: 04:07:00
(UTC+00:00)
Language:

Navstar 6 - Orbit

View from above orbital plane
View from above orbital plane
View from above satellite
View from above satellite

Ground track
Ground track

The orbit data is extracted from the following two-line orbital elements,

1 11783U 80032A   18292.51477115 -.00000044 +00000-0 +00000-0 0  9995
2 11783 063.4857 342.5977 0515687 059.7904 072.7859 02.03455992284830
Epoch (UTC): 19 October 2018 12:21:16
Eccentricity: 0.0515687
inclination: 63.4857°
perigee height: 18573 km
apogee height: 21286 km
right ascension of ascending node: 342.5977°
argument of perigee: 59.7904°
revolutions per day: 2.03455992
mean anomaly at epoch: 72.7859°
orbit number at epoch: 28483

The dashed part of the orbit path shows where the satellite is in the earth's shadow,  

DLR